Temp
63 62 62 62 62 62 63 63 63 63 63 63 63 63 62 62 63 69 72 82 81 77 78 90 89 89 90 86 87 88 73 74 77 73 80 82 77 83 91 84 85 87 85 87 81
62 62 62 62 62 62 62 62 62 62 62 62 62 62 62 63 70 73 81 74 74 77 88 86 83 86 83 84 85 82 75 76 86 87 84 85 86 86 84 83 81 83 88 86 83
62 62 61 61 62 62 62 62 62 61 62 62 62 62 62 66 72 83 77 75 75 79 93 92 90 86 82 86 84 83 72 82 85 88 84 88 86 90 85 81 84 81 82 84 83
61 61 61 61 61 61 61 61 61 61 61 61 62 62 62 72 73 86 78 77 76 87 91 89 86 82 81 79 87 78 83 83 87 89 85 83 91 87 87 88 92 88 86 85 84
61 60 60 60 60 61 61 60 60 60 61 61 62 62 67 73 78 87 79 78 83 87 87 85 82 83 80 83 83 80 83 86 88 88 87 88 86 86 86 90 92 89 86 85 87
60 60 60 60 60 60 60 59 59 59 61 62 62 62 72 71 85 87 84 83 86 88 87 88 85 88 83 82 82 85 85 86 87 88 88 84 87 87 87 90 88 86 85 87 88
60 59 59 59 59 59 59 59 59 60 62 64 63 71 71 76 86 87 85 86 89 90 86 91 89 86 86 81 87 87 80 84 86 88 86 90 83 83 87 88 85 85 86 87 88
59 59 59 59 59 59 58 58 61 63 63 64 64 73 75 84 88 84 86 83 89 90 92 92 90 88 84 87 82 80 82 77 87 87 88 88 78 85 87 86 83 84 85 85 87
59 59 59 58 58 57 57 58 63 64 64 66 72 73 75 79 83 86 87 81 84 87 90 90 88 84 84 78 77 79 74 76 81 89 88 86 80 83 87 86 83 83 84 85 86
58 58 58 58 57 56 56 59 64 64 70 74 75 71 81 76 82 83 87 85 81 81 81 81 81 77 78 77 69 74 74 81 78 84 86 83 81 83 85 86 84 84 83 84 85
58 57 57 57 56 55 65 76 76 75 79 71 74 74 78 84 86 82 85 83 82 78 72 78 72 69 76 79 81 78 78 78 82 87 83 83 83 82 82 85 84 85 83 85 86
57 57 57 56 55 56 73 75 68 70 67 75 74 76 79 81 77 80 86 77 75 70 76 72 68 78 81 80 76 76 74 76 83 86 83 83 82 87 84 83 86 85 84 85 86
57 57 56 55 55 69 76 72 77 74 68 72 77 77 77 81 74 75 81 78 74 71 73 70 75 80 77 75 71 73 73 76 77 82 84 82 79 82 87 85 87 88 88 88 87
57 57 55 53 64 77 77 78 78 75 66 66 72 75 79 78 72 80 81 77 75 71 73 72 80 73 74 71 74 70 79 77 76 74 70 82 69 79 84 82 84 86 87 88 89
57 56 54 52 74 76 75 79 78 74 53 66 70 82 79 74 74 75 79 76 71 72 74 70 72 72 69 72 77 72 81 77 75 73 75 76 72 80 85 80 82 86 88 90 90
56 55 54 66 76 78 80 78 74 61 50 61 68 66 69 71 71 75 74 77 76 71 74 73 82 78 76 79 78 79 75 75 76 74 64 73 73 76 77 82 85 88 89 90 92
55 53 58 73 72 79 78 74 61 56 63 58 61 65 64 64 66 67 66 67 66 61 63 70 72 77 80 74 78 75 71 63 60 61 61 77 72 76 86 89 90 90 90 91 93
53 52 58 73 79 77 75 67 52 57 57 62 61 62 59 62 63 64 63 64 66 65 65 63 60 72 78 75 73 72 73 65 54 60 66 76 68 75 88 90 94 95 96 95 93
52 74 78 77 77 76 69 59 55 55 58 57 62 57 58 59 61 61 60 61 62 64 58 61 62 71 71 78 78 72 66 79 71 73 67 74 76 84 89 89 90 91 93 94 95
66 73 73 78 77 75 68 50 55 59 59 59 53 56 52 57 55 58 58 62 59 63 66 62 55 68 71 71 74 73 80 66 69 56 56 68 71 72 79 82 88 90 93 95 97
69 69 73 78 77 73 61 54 55 60 60 55 54 53 55 53 55 55 56 61 61 61 64 63 58 62 65 66 68 69 67 71 74 69 61 60 69 85 83 86 86 91 94 97 98
69 66 73 77 67 64 55 53 47 56 60 57 57 54 52 53 53 54 53 57 62 62 57 62 59 54 62 69 70 68 69 72 63 61 68 68 71 88 88 91 91 92 95 98 99
64 65 73 76 58 55 55 54 55 54 54 53 52 54 55 52 47 52 55 60 61 60 57 61 56 49 55 65 68 64 68 70 73 74 64 63 67 88 88 87 90 90 91 92 93
65 61 63 63 61 55 53 51 50 55 53 54 52 54 52 51 55 50 51 56 59 61 55 58 57 52 51 54 58 54 60 63 67 62 65 67 71 80 83 84 84 85 86 88 89
63 55 54 52 53 54 53 48 47 47 54 55 50 49 48 45 49 49 52 53 58 58 58 57 48 54 56 58 57 55 56 58 58 63 62 69 70 77 82 81 80 82 83 82 85
61 59 58 52 52 53 49 46 44 48 47 47 43 46 47 42 46 45 50 50 50 56 55 58 47 51 49 56 57 54 58 59 60 61 63 65 66 81 82 82 80 79 80 80 82
63 62 60 46 50 51 48 46 45 46 51 52 50 49 48 50 55 58 58 58 55 53 52 50 49 46 44 55 53 49 58 60 62 64 64 59 69 79 73 78 77 74 76 77 79
MSLP
1018.88 1018.42 1017.93 1017.41 1016.86 1016.31 1015.79 1015.42 1014.97 1014.58 1014.19 1014.02 1014.04 1013.97 1013.89 1013.80 1013.57 1013.17 1011.01 1009.36 1009.58 1009.79 1009.56 1009.17 1009.42 1009.40 1009.47 1008.97 1008.84 1008.31 1007.30 1005.44 1004.85 1005.21 1004.67 1006.15 1006.39 1006.85 1006.61 1007.46 1008.07 1008.67 1009.01 1010.23 1012.76
1018.91 1018.44 1017.90 1017.35 1016.86 1016.33 1015.70 1015.10 1014.72 1014.36 1014.02 1013.79 1013.63 1013.66 1013.58 1013.46 1012.36 1010.74 1009.23 1009.66 1009.84 1009.61 1008.71 1008.43 1008.53 1008.93 1008.74 1008.33 1008.11 1007.27 1006.27 1004.79 1004.56 1004.31 1004.31 1005.37 1005.37 1006.05 1006.67 1007.33 1008.02 1008.79 1009.56 1011.27 1012.78
1019.01 1018.47 1017.87 1017.17 1016.56 1016.13 1015.59 1014.99 1014.38 1014.03 1013.86 1013.56 1013.40 1013.39 1013.37 1013.03 1010.93 1007.98 1009.13 1009.31 1009.51 1009.37 1008.06 1008.06 1008.22 1008.37 1007.69 1007.54 1007.24 1006.71 1006.26 1005.42 1004.72 1004.66 1005.06 1004.41 1005.05 1005.59 1005.88 1006.43 1007.29 1008.38 1009.82 1011.29 1012.34
1018.85 1018.33 1017.74 1017.04 1016.33 1015.72 1015.22 1014.71 1014.19 1013.78 1013.47 1013.39 1013.11 1013.13 1013.08 1012.05 1008.93 1007.76 1008.54 1008.55 1009.09 1008.72 1007.88 1007.68 1007.81 1007.47 1007.02 1006.68 1006.53 1006.22 1005.97 1005.61 1004.64 1004.69 1004.95 1004.52 1004.55 1005.04 1005.53 1005.56 1006.54 1008.25 1009.66 1010.63 1011.49
1018.66 1018.01 1017.47 1016.82 1016.01 1015.41 1014.80 1014.33 1013.89 1013.44 1013.16 1013.01 1012.90 1012.93 1012.68 1010.47 1008.17 1008.19 1008.27 1007.87 1008.65 1008.20 1007.36 1007.30 1007.12 1006.91 1006.26 1006.07 1006.30 1006.00 1005.37 1005.25 1005.02 1004.86 1004.74 1004.91 1004.66 1004.69 1005.37 1006.26 1007.07 1008.35 1009.63 1010.40 1011.08
1018.51 1017.69 1017.08 1016.41 1015.70 1015.12 1014.50 1013.93 1013.35 1013.01 1012.69 1012.61 1012.66 1012.74 1011.43 1009.13 1008.51 1008.38 1008.07 1008.42 1008.08 1007.74 1007.29 1007.15 1006.83 1006.70 1006.25 1006.09 1005.85 1005.26 1005.39 1004.90 1004.73 1004.45 1004.55 1004.67 1004.32 1004.95 1005.50 1006.61 1007.32 1008.40 1009.31 1010.07 1010.66
1018.36 1017.49 1016.74 1016.17 1015.56 1014.70 1014.15 1013.59 1012.88 1012.51 1012.23 1012.21 1012.49 1011.97 1010.39 1008.51 1008.48 1008.45 1008.30 1008.05 1007.96 1007.58 1007.08 1007.19 1007.11 1006.89 1006.03 1005.95 1005.95 1005.37 1005.01 1004.54 1004.33 1004.15 1004.00 1004.17 1004.09 1004.48 1005.77 1006.71 1007.52 1008.37 1009.23 1009.97 1010.61
1018.17 1017.38 1016.64 1015.81 1015.24 1014.61 1013.90 1013.33 1012.71 1012.37 1012.28 1012.40 1012.43 1011.19 1008.64 1008.59 1008.41 1008.21 1008.23 1008.30 1008.05 1007.86 1007.30 1007.45 1007.68 1006.85 1006.45 1005.87 1005.63 1005.13 1004.74 1003.25 1002.82 1003.33 1003.36 1003.70 1002.53 1004.26 1005.85 1006.51 1007.35 1008.31 1009.05 1009.75 1010.42
1018.18 1017.35 1016.64 1015.66 1014.83 1014.22 1013.77 1013.26 1012.78 1012.56 1012.47 1012.41 1011.58 1010.15 1007.86 1008.55 1007.80 1007.96 1007.99 1007.82 1008.25 1008.21 1007.66 1008.08 1007.54 1006.60 1006.40 1005.65 1004.62 1004.03 1002.77 1002.53 1001.69 1002.46 1002.51 1003.09 1002.41 1004.42 1005.58 1006.10 1007.00 1008.01 1008.71 1009.43 1010.27
1018.14 1017.14 1016.33 1015.46 1014.54 1014.01 1013.49 1013.17 1012.68 1012.49 1012.19 1011.62 1010.79 1009.72 1007.63 1007.61 1007.73 1007.98 1008.01 1007.81 1007.95 1008.10 1007.95 1007.78 1007.12 1006.21 1005.75 1004.66 1002.79 1002.43 1002.39 1001.31 1001.28 1001.96 1002.11 1002.33 1002.36 1004.27 1005.21 1005.65 1006.42 1007.47 1008.34 1008.97 1009.60
1018.07 1017.08 1016.17 1015.42 1014.50 1013.65 1012.93 1012.19 1011.85 1011.00 1009.89 1010.04 1009.51 1008.56 1007.87 1007.70 1007.74 1007.49 1007.66 1007.58 1007.60 1007.74 1006.81 1006.74 1006.11 1004.49 1004.11 1004.19 1003.29 1002.82 1001.98 1001.36 1001.37 1001.22 1001.75 1001.63 1001.91 1003.43 1004.86 1005.37 1005.88 1006.67 1007.70 1008.33 1008.94
1018.04 1017.11 1016.11 1015.21 1014.45 1013.31 1012.51 1011.57 1012.95 1013.03 1010.63 1009.67 1009.31 1008.62 1008.40 1008.04 1006.81 1007.31 1007.45 1006.91 1006.99 1006.53 1006.33 1006.37 1004.87 1004.45 1004.47 1004.39 1004.29 1003.68 1002.93 1001.92 1001.24 1001.41 1001.77 1001.26 1001.39 1001.67 1003.57 1004.53 1005.03 1005.70 1006.78 1007.54 1008.41
1017.93 1017.03 1015.95 1015.09 1014.13 1013.07 1012.29 1012.71 1013.03 1012.84 1010.70 1009.07 1008.61 1007.99 1007.95 1007.77 1007.15 1007.26 1007.43 1006.80 1006.36 1005.97 1005.57 1004.93 1003.96 1004.50 1004.53 1004.43 1004.57 1003.80 1003.05 1002.20 1001.68 1001.72 1001.96 1001.40 1000.94 1001.18 1002.11 1003.76 1004.43 1005.24 1006.07 1006.85 1007.45
1017.71 1016.85 1015.97 1014.91 1014.32 1012.79 1011.89 1012.46 1012.65 1012.75 1009.71 1008.64 1007.87 1007.98 1007.66 1007.52 1007.19 1007.80 1007.62 1007.17 1006.01 1005.38 1005.26 1004.89 1004.22 1004.48 1004.20 1004.11 1004.26 1003.21 1003.39 1003.34 1002.65 1002.14 1000.87 1001.30 999.83 1000.13 1000.98 1002.44 1003.37 1004.19 1005.01 1005.74 1006.44
1017.43 1016.62 1016.04 1015.50 1013.59 1012.19 1012.71 1012.35 1012.58 1012.43 1008.91 1008.94 1008.07 1008.25 1007.72 1007.21 1007.43 1007.35 1008.02 1007.37 1005.99 1005.22 1004.93 1003.97 1004.02 1004.01 1003.91 1003.66 1003.69 1003.17 1003.15 1003.35 1003.30 1002.54 1001.40 1000.09 1000.00 998.41 999.55 1000.66 1001.77 1002.69 1003.51 1004.41 1005.39
1017.13 1016.39 1015.68 1014.43 1013.27 1012.69 1012.61 1012.63 1012.75 1010.61 1008.01 1008.61 1008.52 1008.25 1007.49 1007.66 1007.59 1007.44 1007.44 1007.49 1006.99 1006.01 1004.98 1003.98 1003.58 1003.51 1003.42 1003.49 1003.56 1003.66 1003.64 1003.54 1003.20 1002.53 1000.81 1000.05 999.65 997.94 998.19 999.13 1000.26 1001.23 1002.20 1003.07 1003.89
1016.79 1016.03 1015.50 1013.85 1012.89 1012.79 1012.59 1011.95 1010.54 1008.44 1009.20 1009.15 1008.83 1008.72 1008.35 1008.01 1007.85 1007.88 1007.48 1007.07 1006.48 1005.79 1004.70 1004.09 1003.22 1003.55 1003.25 1002.97 1003.25 1003.55 1003.07 1001.88 1001.66 1000.81 999.17 999.51 998.95 997.93 997.27 997.89 998.79 999.52 1000.73 1001.78 1002.69
1016.43 1015.92 1014.95 1013.84 1012.95 1012.69 1011.98 1010.70 1009.26 1009.42 1009.46 1010.22 1009.85 1009.44 1008.96 1009.08 1008.61 1008.47 1008.01 1007.32 1007.74 1007.05 1005.02 1003.66 1002.97 1002.80 1002.84 1002.41 1002.01 1002.42 1001.85 1000.26 999.13 998.53 998.59 998.90 996.91 997.14 998.05 998.32 998.13 998.55 999.12 1000.41 1001.47
1016.03 1014.38 1012.93 1012.88 1012.75 1012.49 1011.18 1009.57 1010.00 1010.76 1011.39 1010.98 1010.06 1009.65 1009.40 1009.82 1009.65 1009.17 1008.94 1008.63 1008.96 1008.55 1007.14 1005.17 1003.95 1003.82 1003.98 1003.11 1002.45 1001.56 1001.39 1000.64 999.14 998.19 997.61 996.75 997.41 997.17 997.03 997.61 998.25 998.36 998.63 999.15 1000.05
1015.43 1013.71 1012.86 1012.85 1012.49 1011.65 1010.10 1010.85 1012.03 1012.67 1012.54 1011.97 1010.92 1010.99 1010.17 1010.13 1010.38 1009.85 1009.50 1009.85 1009.91 1010.05 1009.39 1007.65 1006.12 1004.65 1004.18 1004.71 1003.71 1002.28 1001.34 1000.97 999.93 998.54 997.28 996.52 995.77 995.93 996.67 997.03 997.09 997.47 997.83 998.24 998.81
1014.83 1012.63 1013.23 1012.76 1011.98 1010.63 1010.55 1012.63 1013.47 1013.90 1013.81 1013.17 1012.48 1012.04 1011.62 1011.61 1011.47 1010.78 1010.26 1010.61 1010.98 1010.61 1010.42 1009.51 1008.16 1005.55 1005.64 1003.99 1002.63 1002.61 1001.98 1000.79 999.87 999.30 997.65 996.79 995.37 995.34 995.59 996.14 996.75 996.72 997.00 997.25 997.71
1014.25 1012.20 1013.79 1012.60 1011.41 1012.10 1013.05 1014.51 1015.63 1014.86 1014.62 1014.29 1014.17 1013.71 1013.37 1013.13 1012.50 1011.85 1011.49 1011.47 1012.24 1011.72 1010.71 1010.43 1009.25 1007.08 1005.33 1004.69 1004.52 1003.76 1001.83 1001.19 999.85 999.17 998.63 997.21 995.77 995.76 995.95 995.88 996.31 996.56 996.60 996.78 997.23
1014.70 1014.20 1014.31 1012.20 1012.08 1013.35 1014.75 1015.25 1015.58 1015.31 1015.44 1015.23 1014.96 1015.17 1014.94 1014.16 1013.67 1013.06 1012.77 1013.01 1013.18 1012.51 1011.76 1011.21 1009.58 1008.28 1006.61 1005.67 1005.18 1004.39 1003.30 1002.54 1000.87 999.80 998.27 997.55 996.88 996.18 996.64 996.73 997.09 997.47 997.56 997.67 997.89
1015.24 1013.89 1014.85 1014.93 1015.29 1014.93 1015.19 1015.99 1016.07 1016.67 1016.53 1016.45 1016.28 1016.03 1015.43 1014.78 1014.39 1013.91 1013.69 1013.59 1013.94 1013.39 1013.72 1013.05 1010.79 1009.43 1007.04 1006.82 1006.83 1006.16 1005.24 1004.51 1002.70 1000.75 999.59 998.25 997.27 996.74 997.11 997.45 998.13 998.75 999.11 999.02 998.82
1016.07 1016.40 1017.11 1016.03 1016.38 1016.39 1016.70 1017.43 1017.13 1016.87 1017.03 1017.01 1016.78 1016.87 1016.53 1015.64 1014.91 1014.41 1014.53 1014.25 1014.07 1013.79 1013.83 1013.28 1011.54 1010.44 1009.42 1008.80 1008.50 1007.79 1006.93 1005.90 1004.59 1003.10 1000.77 999.68 998.60 997.95 997.76 998.48 999.79 1000.01 1000.13 1000.14 999.73
1016.56 1016.83 1017.43 1017.76 1017.81 1017.19 1017.77 1018.09 1018.32 1018.14 1018.18 1017.46 1017.97 1017.81 1017.63 1017.30 1016.38 1015.63 1015.23 1014.93 1014.31 1013.87 1013.63 1013.32 1012.45 1011.64 1010.45 1009.37 1008.54 1007.64 1006.86 1006.21 1005.41 1004.60 1003.41 1002.09 1000.42 999.38 999.53 1000.01 1000.42 1000.75 1000.68 1000.45 1000.15
1018.55 1018.67 1017.77 1018.67 1018.25 1017.96 1018.61 1018.85 1019.00 1019.28 1018.61 1018.40 1018.14 1017.72 1017.11 1016.93 1016.51 1016.07 1015.91 1015.36 1015.14 1014.51 1013.86 1013.85 1013.05 1012.09 1010.34 1009.27 1008.86 1007.51 1006.11 1005.87 1005.46 1005.03 1004.25 1002.94 1002.13 1001.04 1001.75 1001.21 1001.37 1001.89 1001.80 1001.68 1001.53
Wind_Speed
20 20 20 20 20 20 20 18 17 16 17 16 12 10 8 7 8 10 10 1 8 12 13 18 17 15 17 12 8 8 6 5 6 7 9 9 6 9 6 10 4 8 3 22 25
20 20 21 21 20 20 20 20 18 16 16 15 13 9 7 6 11 14 4 3 9 15 20 22 20 18 13 13 9 9 7 3 4 3 4 12 11 12 10 12 9 8 15 28 26
21 21 21 22 22 20 19 19 19 17 14 13 11 8 6 9 9 6 4 12 12 17 17 18 18 18 13 11 13 11 5 6 4 4 5 11 8 10 10 10 12 16 26 28 27
23 23 22 23 23 22 20 19 18 17 15 11 8 5 5 8 1 6 12 10 18 21 19 19 20 19 15 12 15 10 12 8 4 5 4 3 10 8 10 11 13 18 26 29 28
24 24 23 23 25 23 21 19 17 16 15 10 4 5 7 7 2 10 8 10 21 22 23 20 21 17 15 15 8 16 8 9 10 8 1 5 8 3 8 6 14 21 26 28 25
23 24 24 24 24 24 22 19 18 15 13 8 6 8 7 6 3 10 5 15 19 21 21 19 15 15 9 7 15 5 17 11 7 9 5 7 8 8 6 9 16 21 26 27 26
23 24 25 24 26 25 23 19 15 8 6 7 11 6 5 4 3 5 2 9 14 19 19 17 4 15 4 11 11 12 10 13 18 15 8 14 11 12 13 13 16 19 22 25 24
24 25 25 26 25 24 22 17 5 4 7 10 10 4 3 1 4 3 5 7 13 7 15 9 7 17 8 2 6 14 17 14 17 16 9 13 15 12 13 15 16 19 20 23 24
24 25 25 26 25 22 17 13 3 6 8 9 9 5 6 5 1 3 3 7 14 8 11 9 10 12 13 13 12 11 13 19 14 16 12 14 8 12 14 14 16 18 20 21 22
24 25 26 26 25 19 14 7 6 10 7 7 5 7 5 6 3 0 3 8 14 13 12 15 11 12 13 15 14 15 19 17 18 15 19 16 6 13 14 15 17 17 19 21 23
25 26 26 26 24 19 9 6 6 7 0 7 7 5 7 6 7 3 9 11 9 15 15 17 16 21 20 18 17 10 11 17 16 10 17 18 16 16 14 14 16 18 19 20 22
25 25 25 26 25 16 9 6 6 6 4 1 2 2 0 4 5 8 10 9 11 16 17 11 20 18 15 15 16 14 12 14 11 15 14 17 17 13 18 15 16 18 19 20 21
25 26 26 24 23 8 7 8 5 5 7 4 2 7 6 6 5 8 7 3 13 17 19 17 6 19 15 16 16 19 18 13 14 15 13 16 17 16 17 15 15 16 17 18 21
24 25 26 29 6 4 2 11 8 7 7 6 4 5 3 1 3 5 3 7 9 16 15 17 20 6 19 20 19 19 18 15 12 11 14 20 14 20 18 19 19 19 20 21 22
25 25 24 15 6 4 9 11 2 6 7 4 3 3 3 3 4 4 1 7 12 11 13 15 15 19 16 17 21 17 11 15 18 16 17 15 14 12 23 19 21 21 22 22 23
26 26 22 6 3 5 10 7 6 10 3 5 2 3 3 3 2 5 1 4 4 10 13 18 15 14 22 14 15 9 12 15 15 16 19 22 16 17 16 19 21 21 22 23 24
26 25 12 4 6 11 7 5 9 8 4 5 2 3 3 4 2 4 2 3 5 10 17 17 16 15 10 18 18 16 17 11 12 16 17 22 22 15 7 21 19 20 22 23 23
26 20 3 3 10 7 5 9 9 7 4 2 3 3 4 6 4 3 3 6 3 8 10 11 16 20 16 19 16 22 19 13 18 15 16 22 18 22 23 2 13 18 19 21 22
25 5 4 10 8 4 7 9 9 5 4 6 7 5 3 3 5 4 3 7 5 7 8 6 17 2 3 13 17 16 24 21 23 9 12 16 21 15 18 23 17 13 12 18 20
6 4 9 16 7 7 6 6 4 6 6 3 5 1 3 1 5 1 1 5 1 5 7 5 9 5 9 8 17 20 11 20 16 20 19 14 18 16 23 17 20 21 18 16 18
6 5 11 15 7 2 3 6 5 7 8 6 4 6 5 7 6 7 4 4 1 1 6 8 6 6 5 14 20 16 17 16 17 17 15 16 12 11 16 21 21 15 16 17 17
5 1 12 11 1 3 6 5 2 7 6 3 3 5 6 5 9 8 6 3 5 5 6 4 8 11 16 7 7 12 14 26 15 23 17 18 13 7 5 17 14 18 16 17 18
4 4 9 9 4 7 8 8 7 5 7 4 3 4 2 5 6 4 7 3 4 6 4 1 7 9 15 16 9 10 9 12 18 20 22 18 17 8 9 2 5 7 4 3 5
4 1 5 7 7 6 7 8 4 5 4 3 3 4 5 6 6 7 7 2 4 8 6 7 12 12 14 12 12 5 9 6 16 17 15 17 12 19 17 13 5 7 6 5 4
5 6 4 5 7 8 8 3 4 4 1 2 4 3 4 5 6 8 8 10 10 5 10 8 14 12 14 14 12 15 15 15 16 16 21 18 20 19 7 6 8 9 7 6 6
3 2 7 7 4 6 3 4 6 8 6 4 5 6 3 8 11 14 13 10 10 7 10 8 13 9 15 17 14 18 17 18 19 19 17 17 19 13 10 12 12 7 9 8 7
4 4 0 3 5 2 6 4 1 3 3 5 6 9 8 9 8 11 11 14 12 12 11 9 10 9 13 12 9 16 21 23 20 20 18 19 15 11 8 14 7 8 8 9 8
Wind_Direction
350 348 345 340 337 333 331 328 325 322 317 317 316 312 303 290 268 220 237 299 185 177 209 156 167 176 181 203 225 228 253 206 124 221 126 137 146 201 79 143 157 163 142 141 143
348 347 342 338 335 333 329 325 322 319 316 315 314 311 302 285 264 253 229 235 218 191 179 168 172 172 193 205 207 228 253 253 43 68 87 167 168 151 164 156 146 138 118 137 152
345 345 341 336 334 334 330 324 320 316 313 312 307 303 280 276 265 108 118 211 202 205 181 181 166 182 197 205 212 212 231 260 169 97 349 145 172 163 160 179 163 150 145 153 157
342 342 339 336 335 334 331 325 318 312 310 308 297 279 262 249 316 52 337 235 189 197 181 184 180 194 205 202 211 246 223 245 133 148 69 224 131 176 191 55 139 152 157 159 167
339 337 338 336 335 334 331 325 315 307 302 295 255 217 227 229 292 349 325 156 172 191 182 184 189 200 212 207 207 227 237 229 235 252 178 208 190 125 186 110 135 148 164 168 171
338 335 337 336 335 334 330 324 312 304 292 269 189 188 254 253 63 14 49 160 174 188 184 193 198 208 252 218 213 197 236 246 205 224 179 240 189 197 122 145 145 158 171 173 175
338 336 336 335 336 332 330 327 316 303 293 174 169 232 240 352 316 338 143 174 179 196 186 199 219 194 205 217 216 223 241 219 238 237 220 215 205 207 135 154 156 167 173 176 177
338 335 335 333 335 333 329 331 340 87 107 142 179 246 33 96 332 202 160 159 185 215 210 186 222 220 240 58 210 223 230 244 207 207 197 220 193 146 165 166 165 169 176 179 181
335 334 334 334 333 331 326 321 110 115 133 168 220 269 82 143 289 59 172 170 174 181 209 177 216 210 200 230 215 202 219 221 174 207 199 206 175 151 176 174 166 173 176 182 183
337 334 336 336 332 330 321 287 167 173 193 228 254 228 64 2 14 96 159 173 170 184 175 197 208 210 220 214 215 201 223 206 216 191 213 194 176 158 178 181 172 176 177 184 187
337 333 335 336 330 326 289 210 224 179 203 3 5 8 41 359 176 131 158 163 184 191 201 196 206 210 210 218 241 300 231 227 216 192 212 221 210 167 182 191 181 180 183 188 191
334 331 333 334 327 309 287 45 51 334 298 66 314 264 350 332 110 92 179 191 179 195 207 181 224 215 225 218 230 232 232 227 223 210 220 219 229 211 175 200 195 186 186 189 188
332 331 331 330 319 283 37 38 342 295 256 130 64 22 21 306 56 48 228 225 205 209 206 220 191 221 216 220 221 228 230 228 231 192 221 246 231 214 179 205 200 201 190 191 192
330 330 331 326 291 352 63 359 318 222 246 121 168 70 336 303 146 27 12 281 212 220 213 235 241 218 209 226 214 231 216 242 244 248 225 213 233 206 198 202 200 198 194 197 193
328 329 327 312 329 354 342 340 356 217 231 79 82 341 341 357 351 88 42 206 254 222 208 213 214 214 219 226 221 238 235 217 237 245 258 190 237 229 195 198 203 207 198 197 200
326 326 321 212 219 5 335 332 230 229 147 124 78 350 257 54 45 349 346 219 329 257 233 257 197 223 229 221 228 219 232 224 229 235 237 232 219 227 193 200 204 204 205 203 199
326 324 299 298 346 326 323 221 232 257 135 107 51 341 335 21 77 7 0 71 280 227 218 221 236 223 223 207 208 209 204 212 205 214 233 219 232 236 229 180 210 199 201 203 205
322 314 171 307 318 302 244 234 251 48 28 47 326 287 322 344 103 334 255 222 92 310 285 231 210 215 203 229 199 208 223 223 210 210 221 222 224 220 233 48 218 225 194 203 203
310 209 316 351 341 264 239 234 22 21 358 336 271 262 156 149 310 302 331 330 5 359 287 286 241 68 240 235 244 196 219 239 261 266 265 208 217 241 219 223 205 200 215 201 201
302 237 28 346 324 248 250 48 96 28 338 305 295 358 280 113 294 258 218 95 90 4 328 53 275 183 153 234 241 258 225 220 235 242 241 228 225 206 215 222 219 224 219 211 212
254 231 14 341 259 272 23 56 91 39 352 334 335 301 321 311 294 287 305 121 282 340 324 317 261 167 210 209 223 205 236 234 236 226 236 240 210 229 231 208 216 212 217 222 222
298 183 1 312 98 38 53 12 289 15 17 12 316 329 308 335 288 275 274 323 27 329 285 39 301 269 253 95 332 294 264 224 231 218 237 270 225 104 208 211 199 220 230 238 225
21 28 24 322 64 93 121 104 63 36 42 32 45 344 330 280 283 217 274 50 277 274 311 41 228 257 233 238 228 242 220 277 262 241 232 223 231 184 170 178 164 206 268 270 281
285 108 81 54 51 69 107 51 71 59 69 18 332 287 279 263 245 285 265 203 281 272 33 281 268 265 275 344 357 275 229 266 265 236 231 238 244 224 226 244 355 347 1 346 321
349 61 347 37 48 79 75 58 36 42 354 3 146 342 348 283 263 259 275 267 245 183 238 262 265 256 267 278 276 273 265 263 256 264 252 241 226 251 227 18 332 317 315 315 310
17 67 89 78 60 67 112 56 20 13 328 70 33 348 295 285 307 309 304 284 273 241 253 228 260 268 271 269 258 266 261 250 247 246 256 268 280 288 329 310 283 314 321 322 325
58 82 127 59 40 74 38 12 338 331 246 279 325 310 302 299 290 289 269 271 255 270 263 247 259 259 262 262 276 262 253 240 243 233 239 237 246 255 286 270 327 327 324 328 317